Location: St. Louis
(38.6270°N, 90.1994°W)
Time: 02:08:06
(UTC-06:00)

Courier 1B Rocket - Pass Details

Date: 30 November 2021
Orbit: 920 x 1202 km, 28.2° (Epoch: 16 January)

Event Time Altitude Azimuth Distance (km) Brightness Sun altitude
Rises 02:33:30 0° 254° (WSW) 3,547 - -51.1°
Reaches altitude 10° 02:36:20 10° 244° (WSW) 2,613 - -50.6°
Maximum altitude 02:41:47 32° 184° (S) 1,564 - -49.6°
Drops below altitude 10° 02:47:25 10° 123° (ESE) 2,713 - -48.5°
Exits shadow 02:47:57 - 121° (ESE) 2,879 7.8 -48.4°
Sets 02:50:26 0° 114° (ESE) 3,703 8.6 -47.9°
